Date String (YYYY-MM-DD hh:mm:ss) UTC,Instrument flags,absolute air pressure of the measurement (hPa),sample flow rate (lpm),inlet stack bypass flow (lpm),air temperature of the measurement (°C),ambient temperature measured by the external sensor (°C),aerosol sample conditioner tube jacket temperature (°C),OPC LED temperature (°C),internal box temperature (°C),relative humidity of the measurement (%),span deviation,mass concentration of particles derived from Lorenz-Mie calculation of OPC scattering (μg/m³),mass concentration of particles derived from Lorenz-Mie calculation of OPC scattering (μg/m³),mass concentration of particles derived from Lorenz-Mie calculation of OPC scattering (μg/m³)
DateTimeUTC,F1_M11,P_M11,Q1_M11,Q2_M11,T1_M11,T2_M11,T3_M11,T4_M11,T5_M11,U1_M11,ZSPAN_M11,X2_M11,X0_M11,X1_M11
2024-06-18 07:00:00,SystemResetWarning,0815.2,5.01,000.00,029.9,029.2,000.0,038.1,031.7,010.5,0000.0,0003.38,0010.09,0002.10
2024-06-18 07:01:00,SystemResetWarning,0815.2,4.98,000.00,030.0,029.3,000.0,038.1,031.8,010.4,0000.0,0003.38,0010.07,0002.10
2024-06-18 07:02:00,SystemResetWarning,0815.2,4.99,000.00,030.0,029.4,000.0,038.1,031.8,010.4,0000.0,0003.35,0010.06,0002.09
2024-06-18 07:03:00,SystemResetWarning,0815.2,5.00,000.00,030.1,029.5,000.0,038.2,031.8,010.3,0000.0,0003.37,0010.17,0002.09
2024-06-18 07:04:00,SystemResetWarning,0815.2,5.00,000.00,030.1,029.5,000.0,038.2,031.9,010.2,0000.0,0003.38,0010.60,0002.08
2024-06-18 07:05:00,SystemResetWarning,0815.2,5.01,000.00,030.2,029.6,000.0,038.2,031.9,010.4,0000.0,0003.39,0010.67,0002.07
2024-06-18 07:06:00,SystemResetWarning,0815.2,5.00,000.00,030.2,029.7,000.0,038.3,032.0,010.7,0000.0,0003.39,0010.67,0002.07
2024-06-18 07:07:00,SystemResetWarning,0815.2,5.00,000.00,030.3,029.7,000.0,038.3,032.0,010.8,0000.0,0003.35,0010.21,0002.07
2024-06-18 07:08:00,SystemResetWarning,0815.2,5.00,000.00,030.3,029.8,000.0,038.3,032.0,010.6,0000.0,0003.33,0009.32,0002.07
2024-06-18 07:09:00,SystemResetWarning,0815.2,5.00,000.00,030.3,029.8,000.0,038.4,032.1,010.3,0000.0,0003.34,0008.67,0002.05
2024-06-18 07:10:00,SystemResetWarning,0815.2,5.00,000.00,030.4,029.8,000.0,038.4,032.1,010.2,0000.0,0003.36,0008.24,0002.05
2024-06-18 07:11:00,SystemResetWarning,0815.1,4.98,000.00,030.2,027.8,000.0,038.5,031.1,010.4,0000.0,0003.32,0008.73,0002.05
2024-06-18 07:12:00,SystemResetWarning,0815.1,5.03,000.00,029.8,026.4,000.0,038.5,030.4,010.8,0000.0,0003.32,0008.97,0002.05
2024-06-18 07:13:00,SystemResetWarning,0815.2,4.99,000.00,029.6,026.6,000.0,038.4,030.4,011.0,0000.0,0003.31,0009.18,0002.07
2024-06-18 07:14:00,SystemResetWarning,0815.1,4.99,000.00,029.5,027.0,000.0,038.3,030.6,011.0,0000.0,0003.26,0009.20,0002.06
2024-06-18 07:15:00,SystemResetWarning,0815.2,5.01,000.00,029.5,027.4,000.0,038.2,030.9,011.2,0000.0,0003.27,0008.72,0002.07
2024-06-18 07:16:00,SystemResetWarning,0815.2,5.00,000.00,029.6,027.8,000.0,038.1,031.0,011.1,0000.0,0003.29,0009.17,0002.08
2024-06-18 07:17:00,SystemResetWarning,0815.2,5.00,000.00,029.6,028.1,000.0,038.1,031.2,011.2,0000.0,0003.28,0009.39,0002.08
2024-06-18 07:18:00,SystemResetWarning,0815.3,5.01,000.00,029.6,028.3,000.0,038.1,031.3,011.1,0000.0,0003.31,0010.16,0002.09
2024-06-18 07:19:00,SystemResetWarning,0815.2,4.99,000.00,029.7,028.5,000.0,038.1,031.4,011.1,0000.0,0003.31,0012.95,0002.09
2024-06-18 07:20:00,SystemResetWarning,0815.3,5.00,000.00,029.7,028.7,000.0,038.0,031.5,011.0,0000.0,0003.29,0012.82,0002.10
2024-06-18 07:21:00,SystemResetWarning,0815.3,4.99,000.00,029.8,028.9,000.0,038.1,031.5,010.9,0000.0,0003.31,0012.83,0002.11
2024-06-18 07:22:00,SystemResetWarning,0815.3,5.00,000.00,029.8,029.0,000.0,038.1,031.6,010.8,0000.0,0003.35,0011.98,0002.12
2024-06-18 07:23:00,SystemResetWarning,0815.3,5.00,000.00,029.9,029.1,000.0,038.1,031.6,010.8,0000.0,0003.38,0011.76,0002.11
2024-06-18 07:24:00,SystemResetWarning,0815.3,4.99,000.00,029.9,029.2,000.0,038.1,031.7,010.6,0000.0,0003.39,0011.72,0002.10
2024-06-18 07:25:00,SystemResetWarning,0815.3,5.00,000.00,030.0,029.3,000.0,038.1,031.8,010.6,0000.0,0003.43,0012.14,0002.11
2024-06-18 07:26:00,SystemResetWarning,0815.3,5.00,000.00,030.0,029.4,000.0,038.2,031.8,010.4,0000.0,0003.44,0012.27,0002.10
2024-06-18 07:27:00,SystemResetWarning,0815.3,5.00,000.00,030.1,029.5,000.0,038.2,031.9,010.4,0000.0,0003.41,0011.72,0002.09
2024-06-18 07:28:00,SystemResetWarning,0815.3,5.00,000.00,030.1,029.5,000.0,038.2,031.9,010.5,0000.0,0003.42,0012.41,0002.09
2024-06-18 07:29:00,SystemResetWarning,0815.3,5.00,000.00,030.2,029.6,000.0,038.2,032.0,010.6,0000.0,0003.46,0011.82,0002.08
2024-06-18 07:30:00,SystemResetWarning,0815.3,5.00,000.00,030.2,029.7,000.0,038.3,032.0,010.4,0000.0,0003.47,0009.63,0002.08
2024-06-18 07:31:00,SystemResetWarning,0815.3,5.00,000.00,030.3,029.7,000.0,038.3,032.0,010.5,0000.0,0003.46,0010.46,0002.08
2024-06-18 07:32:00,SystemResetWarning,0815.3,5.00,000.00,030.3,029.8,000.0,038.3,032.1,010.5,0000.0,0003.47,0012.39,0002.09
2024-06-18 07:33:00,SystemResetWarning,0815.3,5.00,000.00,030.3,029.8,000.0,038.4,032.1,010.4,0000.0,0003.51,0012.67,0002.09
2024-06-18 07:34:00,SystemResetWarning,0815.3,5.00,000.00,030.4,029.8,000.0,038.4,032.1,010.3,0000.0,0003.50,0012.74,0002.09
2024-06-18 07:35:00,SystemResetWarning,0815.3,5.00,000.00,030.4,029.9,000.0,038.5,032.2,010.5,0000.0,0003.47,0013.23,0002.08
2024-06-18 07:36:00,SystemResetWarning,0815.4,4.99,000.00,030.5,029.9,000.0,038.5,032.2,010.6,0000.0,0003.48,0014.20,0002.07
2024-06-18 07:37:00,SystemResetWarning,0815.3,5.00,000.00,030.5,030.0,000.0,038.5,032.2,010.5,0000.0,0003.52,0015.19,0002.08
2024-06-18 07:38:00,SystemResetWarning,0815.4,4.99,000.00,030.5,030.0,000.0,038.6,032.3,010.5,0000.0,0003.57,0015.83,0002.08
2024-06-18 07:39:00,SystemResetWarning,0815.3,5.00,000.00,030.4,028.7,000.0,038.6,031.6,010.6,0000.0,0003.55,0015.23,0002.07
2024-06-18 07:40:00,SystemResetWarning,0815.3,5.01,000.00,030.0,026.5,000.0,038.7,030.6,010.8,0000.0,0003.55,0015.16,0002.07
2024-06-18 07:41:00,SystemResetWarning,0815.3,5.01,000.00,029.7,026.5,000.0,038.6,030.4,010.9,0000.0,0003.58,0014.86,0002.07
2024-06-18 07:42:00,SystemResetWarning,0815.3,4.99,000.00,029.6,026.9,000.0,038.5,030.6,010.8,0000.0,0003.57,0014.04,0002.05
2024-06-18 07:43:00,SystemResetWarning,0815.3,5.01,000.00,029.6,027.3,000.0,038.3,030.8,010.9,0000.0,0003.54,0012.38,0002.05
2024-06-18 07:44:00,SystemResetWarning,0815.3,5.00,000.00,029.6,027.7,000.0,038.3,031.0,011.0,0000.0,0003.52,0013.12,0002.04
2024-06-18 07:45:00,SystemResetWarning,0815.4,4.99,000.00,029.7,028.0,000.0,038.2,031.2,011.1,0000.0,0003.50,0013.71,0002.04
2024-06-18 07:46:00,SystemResetWarning,0815.3,5.00,000.00,029.7,028.3,000.0,038.2,031.3,011.0,0000.0,0003.51,0013.23,0002.05
2024-06-18 07:47:00,SystemResetWarning,0815.4,5.00,000.00,029.7,028.5,000.0,038.2,031.4,011.0,0000.0,0003.52,0012.63,0002.06
2024-06-18 07:48:00,SystemResetWarning,0815.4,5.01,000.00,029.8,028.7,000.0,038.2,031.4,010.9,0000.0,0003.53,0012.47,0002.07
2024-06-18 07:49:00,SystemResetWarning,0815.4,5.00,000.00,029.8,028.9,000.0,038.1,031.5,010.8,0000.0,0003.51,0011.93,0002.09
2024-06-18 07:50:00,SystemResetWarning,0815.4,5.00,000.00,029.9,029.0,000.0,038.2,031.6,010.6,0000.0,0003.55,0012.40,0002.10
2024-06-18 07:51:00,SystemResetWarning,0815.5,4.99,000.00,029.9,029.1,000.0,038.2,031.6,010.6,0000.0,0003.54,0012.85,0002.10
2024-06-18 07:52:00,SystemResetWarning,0815.5,4.99,000.00,029.9,029.2,000.0,038.2,031.7,010.6,0000.0,0003.54,0013.59,0002.09
2024-06-18 07:53:00,SystemResetWarning,0815.4,5.00,000.00,030.0,029.3,000.0,038.2,031.7,010.5,0000.0,0003.53,0013.88,0002.09
2024-06-18 07:54:00,SystemResetWarning,0815.5,5.00,000.00,030.0,029.4,000.0,038.2,031.8,010.6,0000.0,0003.56,0014.43,0002.09
2024-06-18 07:55:00,SystemResetWarning,0815.5,5.00,000.00,030.1,029.5,000.0,038.2,031.8,010.4,0000.0,0003.55,0013.61,0002.10
2024-06-18 07:56:00,SystemResetWarning,0815.6,5.00,000.00,030.1,029.5,000.0,038.3,031.9,010.5,0000.0,0003.55,0013.75,0002.11
2024-06-18 07:57:00,SystemResetWarning,0815.6,5.01,000.00,030.2,029.6,000.0,038.3,032.0,010.6,0000.0,0003.59,0013.96,0002.11
2024-06-18 07:58:00,SystemResetWarning,0815.6,5.00,000.00,030.2,029.6,000.0,038.3,032.0,010.6,0000.0,0003.60,0013.33,0002.12
2024-06-18 07:59:00,SystemResetWarning,0815.6,5.00,000.00,030.2,029.7,000.0,038.4,032.0,010.6,0000.0,0003.55,0012.46,0002.11
